owner,sensor,date,latitude,longitude,vertical_datum,wind_speed,wind_to_direction,wind_speed_of_gust,qcFlag 
LUMCON,ioos:station:LUMCON:101:1,2011-09-01T19:00:00Z,29.2533,-90.6633,1.0,3.6,60.0,6.7,'11111222,11111222,11111222' 
LUMCON,ioos:station:LUMCON:101:1,2011-09-01T22:00:00Z,29.2533,-90.6633,1.0,6.2,80.0,9.8,'11111222,11111222,11111222' 
LUMCON,ioos:station:LUMCON:101:1,2011-09-01T23:00:00Z,29.2533,-90.6633,1.0,8.2,60.0,9.8,'11111222,11111222,11111222' 
LUMCON,ioos:station:LUMCON:101:1,2011-09-02T00:00:00Z,29.2533,-90.6633,1.0,7.2,70.0,9.8,'11111222,11111222,11111222' 
LUMCON,ioos:station:LUMCON:101:1,2011-09-02T01:00:00Z,29.2533,-90.6633,1.0,9.8,90.0,99.0,'11111222,11111222,11144222' 
LUMCON,ioos:station:LUMCON:101:1,2011-09-02T02:00:00Z,29.2533,-90.6633,1.0,8.2,90.0,9.3,'11111222,11111222,11111222' 
LUMCON,ioos:station:LUMCON:101:1,2011-09-02T03:00:00Z,29.2533,-90.6633,1.0,7.2,100.0,9.8,'11111222,11111222,11111222' 
LUMCON,ioos:station:LUMCON:101:1,2011-09-02T04:00:00Z,29.2533,-90.6633,1.0,9.3,100.0,14.9,'11111222,11111222,11111222' 
LUMCON,ioos:station:LUMCON:101:1,2011-09-02T06:00:00Z,29.2533,-90.6633,1.0,10.3,120.0,12.4,'11111222,11111222,11111222' 
LUMCON,ioos:station:LUMCON:101:1,2011-09-02T07:00:00Z,29.2533,-90.6633,1.0,8.2,110.0,9.8,'11111222,11111222,11111222' 
LUMCON,ioos:station:LUMCON:101:1,2011-09-02T08:00:00Z,29.2533,-90.6633,1.0,7.7,110.0,9.8,'11111222,11111222,11111222' 
LUMCON,ioos:station:LUMCON:101:1,2011-09-02T14:00:00Z,29.2533,-90.6633,1.0,6.7,70.0,9.8,'11111222,11111222,11111222' 
LUMCON,ioos:station:LUMCON:101:1,2011-09-02T16:00:00Z,29.2533,-90.6633,1.0,9.3,100.0,9.3,'11111222,11111222,11111222' 
LUMCON,ioos:station:LUMCON:101:1,2011-09-02T18:00:00Z,29.2533,-90.6633,1.0,8.2,80.0,9.8,'11111222,11111222,11111222' 
LUMCON,ioos:station:LUMCON:101:1,2011-09-02T20:00:00Z,29.2533,-90.6633,1.0,8.2,90.0,9.8,'11111222,11111222,11111222' 
LUMCON,ioos:station:LUMCON:101:1,2011-09-02T22:00:00Z,29.2533,-90.6633,1.0,9.8,70.0,13.9,'11111222,11111222,11111222' 
LUMCON,ioos:station:LUMCON:101:1,2011-09-02T23:00:00Z,29.2533,-90.6633,1.0,10.3,70.0,15.4,'11111222,11111222,11111222' 
LUMCON,ioos:station:LUMCON:101:1,2011-09-03T00:00:00Z,29.2533,-90.6633,1.0,10.3,50.0,14.4,'11111222,11111222,11111222' 
LUMCON,ioos:station:LUMCON:101:1,2011-09-03T01:00:00Z,29.2533,-90.6633,1.0,8.8,60.0,9.8,'11111222,11111222,11111222' 
LUMCON,ioos:station:LUMCON:101:1,2011-09-03T02:00:00Z,29.2533,-90.6633,1.0,11.3,70.0,16.5,'11111222,11111222,11111222' 
LUMCON,ioos:station:LUMCON:101:1,2011-09-03T03:00:00Z,29.2533,-90.6633,1.0,9.3,80.0,16.0,'11111222,11111222,11111222' 
LUMCON,ioos:station:LUMCON:101:1,2011-09-03T04:00:00Z,29.2533,-90.6633,1.0,13.4,90.0,19.0,'11111222,11111222,11111222' 
LUMCON,ioos:station:LUMCON:101:1,2011-09-03T15:00:00Z,29.2533,-90.6633,1.0,5.7,50.0,6.7,'11111222,11111222,11111222' 
LUMCON,ioos:station:LUMCON:101:1,2011-09-05T16:00:00Z,29.2533,-90.6633,1.0,10.3,310.0,12.9,'11111222,11111222,11111222' 
LUMCON,ioos:station:LUMCON:101:1,2011-09-05T17:00:00Z,29.2533,-90.6633,1.0,10.8,320.0,13.9,'11111222,11111222,11111222' 
LUMCON,ioos:station:LUMCON:101:1,2011-09-05T18:00:00Z,29.2533,-90.6633,1.0,10.8,320.0,14.9,'11111222,11111222,11111222' 
LUMCON,ioos:station:LUMCON:101:1,2011-09-05T19:00:00Z,29.2533,-90.6633,1.0,8.8,320.0,8.8,'11111222,11111222,11111222' 
LUMCON,ioos:station:LUMCON:101:1,2011-09-05T20:00:00Z,29.2533,-90.6633,1.0,8.2,330.0,9.8,'11111222,11111222,11111222' 
LUMCON,ioos:station:LUMCON:101:1,2011-09-05T21:00:00Z,29.2533,-90.6633,1.0,7.7,320.0,9.8,'11111222,11111222,11111222' 
LUMCON,ioos:station:LUMCON:101:1,2011-09-05T22:00:00Z,29.2533,-90.6633,1.0,8.2,330.0,9.8,'11111222,11111222,11111222' 
LUMCON,ioos:station:LUMCON:101:1,2011-09-05T23:00:00Z,29.2533,-90.6633,1.0,7.7,330.0,9.8,'11111222,11111222,11111222' 
LUMCON,ioos:station:LUMCON:101:1,2011-09-06T00:00:00Z,29.2533,-90.6633,1.0,8.2,340.0,9.8,'11111222,11111222,11111222' 
LUMCON,ioos:station:LUMCON:101:1,2011-09-06T14:00:00Z,29.2533,-90.6633,1.0,5.1,340.0,7.2,'11111222,11111222,11111222' 
LUMCON,ioos:station:LUMCON:101:1,2011-09-06T15:00:00Z,29.2533,-90.6633,1.0,5.1,350.0,7.2,'11111222,11111222,11111222' 
LUMCON,ioos:station:LUMCON:101:1,2011-09-06T16:00:00Z,29.2533,-90.6633,1.0,5.7,0.0,7.2,'11111222,11111222,11111222' 
LUMCON,ioos:station:LUMCON:101:1,2011-09-06T17:00:00Z,29.2533,-90.6633,1.0,4.6,360.0,6.7,'11111222,11144222,11111222' 
LUMCON,ioos:station:LUMCON:101:1,2011-09-06T18:00:00Z,29.2533,-90.6633,1.0,4.1,0.0,6.7,'11111222,11111222,11111222' 
LUMCON,ioos:station:LUMCON:101:1,2011-09-06T19:00:00Z,29.2533,-90.6633,1.0,4.1,360.0,6.7,'11111222,11144222,11111222' 
LUMCON,ioos:station:LUMCON:101:1,2011-09-06T20:00:00Z,29.2533,-90.6633,1.0,4.1,350.0,6.7,'11111222,11111222,11111222' 
LUMCON,ioos:station:LUMCON:101:1,2011-09-06T21:00:00Z,29.2533,-90.6633,1.0,4.1,10.0,6.2,'11111222,11111222,11111222' 
LUMCON,ioos:station:LUMCON:101:1,2011-09-06T22:00:00Z,29.2533,-90.6633,1.0,4.1,10.0,6.2,'11111222,11111222,11111222' 
LUMCON,ioos:station:LUMCON:101:1,2011-09-06T23:00:00Z,29.2533,-90.6633,1.0,4.1,30.0,5.1,'11111222,11111222,11111222' 
LUMCON,ioos:station:LUMCON:101:1,2011-09-07T00:00:00Z,29.2533,-90.6633,1.0,3.1,40.0,5.1,'11111222,11111222,11111222' 
LUMCON,ioos:station:LUMCON:101:1,2011-09-07T01:00:00Z,29.2533,-90.6633,1.0,3.1,0.0,4.1,'11111222,11111222,11111222' 
LUMCON,ioos:station:LUMCON:101:1,2011-09-07T02:00:00Z,29.2533,-90.6633,1.0,2.6,330.0,3.1,'11111222,11111222,11111222' 
LUMCON,ioos:station:LUMCON:101:1,2011-09-07T03:00:00Z,29.2533,-90.6633,1.0,3.6,350.0,5.1,'11111222,11111222,11111222' 
LUMCON,ioos:station:LUMCON:101:1,2011-09-07T04:00:00Z,29.2533,-90.6633,1.0,3.6,340.0,4.6,'11111222,11111222,11111222' 
LUMCON,ioos:station:LUMCON:101:1,2011-09-07T05:00:00Z,29.2533,-90.6633,1.0,4.1,360.0,5.7,'11111222,11144222,11111222' 
LUMCON,ioos:station:LUMCON:101:1,2011-09-07T07:00:00Z,29.2533,-90.6633,1.0,3.6,20.0,4.6,'11111222,11111222,11111222' 
LUMCON,ioos:station:LUMCON:101:1,2011-09-07T08:00:00Z,29.2533,-90.6633,1.0,4.1,20.0,5.1,'11111222,11111222,11111222' 
LUMCON,ioos:station:LUMCON:101:1,2011-09-07T09:00:00Z,29.2533,-90.6633,1.0,4.1,10.0,4.6,'11111222,11111222,11111222' 
LUMCON,ioos:station:LUMCON:101:1,2011-09-07T10:00:00Z,29.2533,-90.6633,1.0,2.6,20.0,3.6,'11111222,11111222,11111222' 
LUMCON,ioos:station:LUMCON:101:1,2011-09-07T11:00:00Z,29.2533,-90.6633,1.0,3.6,10.0,4.6,'11111222,11111222,11111222' 
LUMCON,ioos:station:LUMCON:101:1,2011-09-07T12:00:00Z,29.2533,-90.6633,1.0,3.6,20.0,4.6,'11111222,11111222,11111222' 
LUMCON,ioos:station:LUMCON:101:1,2011-09-07T13:00:00Z,29.2533,-90.6633,1.0,4.6,20.0,6.2,'11111222,11111222,11111222' 
LUMCON,ioos:station:LUMCON:101:1,2011-09-07T14:00:00Z,29.2533,-90.6633,1.0,5.1,20.0,7.2,'11111222,11111222,11111222' 
LUMCON,ioos:station:LUMCON:101:1,2011-09-07T15:00:00Z,29.2533,-90.6633,1.0,6.2,30.0,7.2,'11111222,11111222,11111222' 
LUMCON,ioos:station:LUMCON:101:1,2011-09-07T16:00:00Z,29.2533,-90.6633,1.0,5.7,40.0,7.7,'11111222,11111222,11111222' 
LUMCON,ioos:station:LUMCON:101:1,2011-09-07T17:00:00Z,29.2533,-90.6633,1.0,5.1,40.0,6.7,'11111222,11111222,11111222' 
LUMCON,ioos:station:LUMCON:101:1,2011-09-07T18:00:00Z,29.2533,-90.6633,1.0,5.1,350.0,7.2,'11111222,11111222,11111222' 
LUMCON,ioos:station:LUMCON:101:1,2011-09-07T19:00:00Z,29.2533,-90.6633,1.0,4.6,350.0,6.7,'11111222,11111222,11111222' 
LUMCON,ioos:station:LUMCON:101:1,2011-09-07T20:00:00Z,29.2533,-90.6633,1.0,4.6,10.0,6.7,'11111222,11111222,11111222' 
LUMCON,ioos:station:LUMCON:101:1,2011-09-07T22:00:00Z,29.2533,-90.6633,1.0,4.6,10.0,6.2,'11111222,11111222,11111222' 
LUMCON,ioos:station:LUMCON:101:1,2011-09-07T23:00:00Z,29.2533,-90.6633,1.0,4.6,30.0,6.2,'11111222,11111222,11111222' 
LUMCON,ioos:station:LUMCON:101:1,2011-09-08T00:00:00Z,29.2533,-90.6633,1.0,2.6,40.0,3.6,'11111222,11111222,11111222' 
LUMCON,ioos:station:LUMCON:101:1,2011-09-08T01:00:00Z,29.2533,-90.6633,1.0,3.1,40.0,3.6,'11111222,11111222,11111222' 
LUMCON,ioos:station:LUMCON:101:1,2011-09-08T02:00:00Z,29.2533,-90.6633,1.0,2.6,50.0,3.6,'11111222,11111222,11111222' 
LUMCON,ioos:station:LUMCON:101:1,2011-09-08T03:00:00Z,29.2533,-90.6633,1.0,2.6,320.0,2.6,'11111222,11111222,11111222' 
LUMCON,ioos:station:LUMCON:101:1,2011-09-08T04:00:00Z,29.2533,-90.6633,1.0,2.1,30.0,2.6,'11111222,11111222,11111222' 
LUMCON,ioos:station:LUMCON:101:1,2011-09-08T05:00:00Z,29.2533,-90.6633,1.0,1.0,0.0,1.5,'11111222,11111222,11111222' 
LUMCON,ioos:station:LUMCON:101:1,2011-09-08T06:00:00Z,29.2533,-90.6633,1.0,2.1,280.0,3.1,'11111222,11111222,11111222' 
LUMCON,ioos:station:LUMCON:101:1,2011-09-08T07:00:00Z,29.2533,-90.6633,1.0,2.6,20.0,3.1,'11111222,11111222,11111222' 
LUMCON,ioos:station:LUMCON:101:1,2011-09-08T08:00:00Z,29.2533,-90.6633,1.0,2.6,20.0,3.1,'11111222,11111222,11111222' 
LUMCON,ioos:station:LUMCON:101:1,2011-09-08T09:00:00Z,29.2533,-90.6633,1.0,3.6,20.0,4.1,'11111222,11111222,11111222' 
LUMCON,ioos:station:LUMCON:101:1,2011-09-08T10:00:00Z,29.2533,-90.6633,1.0,3.1,10.0,3.6,'11111222,11111222,11111222' 
LUMCON,ioos:station:LUMCON:101:1,2011-09-08T11:00:00Z,29.2533,-90.6633,1.0,2.6,10.0,3.6,'11111222,11111222,11111222' 
LUMCON,ioos:station:LUMCON:101:1,2011-09-08T12:00:00Z,29.2533,-90.6633,1.0,3.6,20.0,4.6,'11111222,11111222,11111222' 
LUMCON,ioos:station:LUMCON:101:1,2011-09-08T13:00:00Z,29.2533,-90.6633,1.0,3.1,20.0,3.6,'11111222,11111222,11111222' 
LUMCON,ioos:station:LUMCON:101:1,2011-09-08T14:00:00Z,29.2533,-90.6633,1.0,3.6,20.0,5.1,'11111222,11111222,11111222' 
LUMCON,ioos:station:LUMCON:101:1,2011-09-08T15:00:00Z,29.2533,-90.6633,1.0,3.6,30.0,5.7,'11111222,11111222,11111222' 
LUMCON,ioos:station:LUMCON:101:1,2011-09-08T16:00:00Z,29.2533,-90.6633,1.0,5.1,50.0,6.7,'11111222,11111222,11111222' 
LUMCON,ioos:station:LUMCON:101:1,2011-09-08T17:00:00Z,29.2533,-90.6633,1.0,3.6,30.0,7.2,'11111222,11111222,11111222' 
LUMCON,ioos:station:LUMCON:101:1,2011-09-08T18:00:00Z,29.2533,-90.6633,1.0,2.6,80.0,5.7,'11111222,11111222,11111222' 
LUMCON,ioos:station:LUMCON:101:1,2011-09-08T19:00:00Z,29.2533,-90.6633,1.0,2.1,10.0,4.1,'11111222,11111222,11111222' 
LUMCON,ioos:station:LUMCON:101:1,2011-09-08T23:00:00Z,29.2533,-90.6633,1.0,2.6,20.0,4.6,'11111222,11111222,11111222' 
LUMCON,ioos:station:LUMCON:101:1,2011-09-09T00:00:00Z,29.2533,-90.6633,1.0,2.1,40.0,3.6,'11111222,11111222,11111222' 
LUMCON,ioos:station:LUMCON:101:1,2011-09-09T01:00:00Z,29.2533,-90.6633,1.0,2.6,50.0,3.1,'11111222,11111222,11111222' 
LUMCON,ioos:station:LUMCON:101:1,2011-09-09T02:00:00Z,29.2533,-90.6633,1.0,1.5,50.0,2.1,'11111222,11111222,11111222' 
LUMCON,ioos:station:LUMCON:101:1,2011-09-09T03:00:00Z,29.2533,-90.6633,1.0,2.6,260.0,2.6,'11111222,11111222,11111222' 
LUMCON,ioos:station:LUMCON:101:1,2011-09-09T04:00:00Z,29.2533,-90.6633,1.0,2.6,260.0,3.1,'11111222,11111222,11111222' 
LUMCON,ioos:station:LUMCON:101:1,2011-09-09T05:00:00Z,29.2533,-90.6633,1.0,2.1,260.0,2.6,'11111222,11111222,11111222' 
LUMCON,ioos:station:LUMCON:101:1,2011-09-09T06:00:00Z,29.2533,-90.6633,1.0,2.6,290.0,3.1,'11111222,11111222,11111222' 
LUMCON,ioos:station:LUMCON:101:1,2011-09-09T07:00:00Z,29.2533,-90.6633,1.0,0.5,280.0,1.5,'11111222,11111222,11111222' 
LUMCON,ioos:station:LUMCON:101:1,2011-09-09T08:00:00Z,29.2533,-90.6633,1.0,1.5,340.0,2.1,'11111222,11111222,11111222' 
LUMCON,ioos:station:LUMCON:101:1,2011-09-09T09:00:00Z,29.2533,-90.6633,1.0,2.1,330.0,2.6,'11111222,11111222,11111222' 
LUMCON,ioos:station:LUMCON:101:1,2011-09-09T10:00:00Z,29.2533,-90.6633,1.0,1.5,340.0,2.1,'11111222,11111222,11111222' 
LUMCON,ioos:station:LUMCON:101:1,2011-09-09T11:00:00Z,29.2533,-90.6633,1.0,2.1,320.0,2.6,'11111222,11111222,11111222' 
LUMCON,ioos:station:LUMCON:101:1,2011-09-09T12:00:00Z,29.2533,-90.6633,1.0,2.6,30.0,2.6,'11111222,11111222,11111222' 
LUMCON,ioos:station:LUMCON:101:1,2011-09-09T13:00:00Z,29.2533,-90.6633,1.0,1.5,20.0,2.1,'11111222,11111222,11111222' 
LUMCON,ioos:station:LUMCON:101:1,2011-09-09T14:00:00Z,29.2533,-90.6633,1.0,1.5,10.0,2.6,'11111222,11111222,11111222' 
LUMCON,ioos:station:LUMCON:101:1,2011-09-09T15:00:00Z,29.2533,-90.6633,1.0,2.1,10.0,3.6,'11111222,11111222,11111222' 
LUMCON,ioos:station:LUMCON:101:1,2011-09-09T17:00:00Z,29.2533,-90.6633,1.0,1.5,0.0,3.6,'11111222,11111222,11111222' 
LUMCON,ioos:station:LUMCON:101:1,2011-09-09T18:00:00Z,29.2533,-90.6633,1.0,2.1,320.0,4.6,'11111222,11111222,11111222' 
LUMCON,ioos:station:LUMCON:101:1,2011-09-09T20:00:00Z,29.2533,-90.6633,1.0,1.0,270.0,2.6,'11111222,11111222,11111222' 
LUMCON,ioos:station:LUMCON:101:1,2011-09-09T22:00:00Z,29.2533,-90.6633,1.0,2.6,20.0,4.1,'11111222,11111222,11111222' 
LUMCON,ioos:station:LUMCON:101:1,2011-09-10T00:00:00Z,29.2533,-90.6633,1.0,2.6,210.0,3.1,'11111222,11111222,11111222' 
LUMCON,ioos:station:LUMCON:101:1,2011-09-10T02:00:00Z,29.2533,-90.6633,1.0,1.0,230.0,1.5,'11111222,11111222,11111222' 
LUMCON,ioos:station:LUMCON:101:1,2011-09-10T07:00:00Z,29.2533,-90.6633,1.0,1.0,180.0,1.5,'11111222,11111222,11111222' 
LUMCON,ioos:station:LUMCON:101:1,2011-09-10T09:00:00Z,29.2533,-90.6633,1.0,0.5,210.0,1.0,'11111222,11111222,11111222' 
LUMCON,ioos:station:LUMCON:101:1,2011-09-10T10:00:00Z,29.2533,-90.6633,1.0,1.0,230.0,1.0,'11111222,11111222,11111222' 
LUMCON,ioos:station:LUMCON:101:1,2011-09-10T11:00:00Z,29.2533,-90.6633,1.0,1.5,250.0,2.1,'11111222,11111222,11111222' 
LUMCON,ioos:station:LUMCON:101:1,2011-09-10T12:00:00Z,29.2533,-90.6633,1.0,1.5,290.0,1.5,'11111222,11111222,11111222' 
LUMCON,ioos:station:LUMCON:101:1,2011-09-10T13:00:00Z,29.2533,-90.6633,1.0,1.5,300.0,2.1,'11111222,11111222,11111222' 
LUMCON,ioos:station:LUMCON:101:1,2011-09-10T14:00:00Z,29.2533,-90.6633,1.0,2.1,330.0,3.1,'11111222,11111222,11111222' 
LUMCON,ioos:station:LUMCON:101:1,2011-09-10T15:00:00Z,29.2533,-90.6633,1.0,1.5,320.0,3.1,'11111222,11111222,11111222' 
LUMCON,ioos:station:LUMCON:101:1,2011-09-10T16:00:00Z,29.2533,-90.6633,1.0,1.5,340.0,3.6,'11111222,11111222,11111222' 
LUMCON,ioos:station:LUMCON:101:1,2011-09-10T17:00:00Z,29.2533,-90.6633,1.0,3.1,100.0,4.6,'11111222,11111222,11111222' 
LUMCON,ioos:station:LUMCON:101:1,2011-09-12T14:00:00Z,29.2533,-90.6633,1.0,1.0,300.0,1.5,'11111222,11111222,11111222' 
LUMCON,ioos:station:LUMCON:101:1,2011-09-12T15:00:00Z,29.2533,-90.6633,1.0,1.5,290.0,2.6,'11111222,11111222,11111222' 
LUMCON,ioos:station:LUMCON:101:1,2011-09-12T17:00:00Z,29.2533,-90.6633,1.0,1.5,210.0,2.1,'11111222,11111222,11111222' 
LUMCON,ioos:station:LUMCON:101:1,2011-09-12T18:00:00Z,29.2533,-90.6633,1.0,3.1,130.0,4.1,'11111222,11111222,11111222' 
LUMCON,ioos:station:LUMCON:101:1,2011-09-12T19:00:00Z,29.2533,-90.6633,1.0,3.1,130.0,4.1,'11111222,11111222,11111222' 
LUMCON,ioos:station:LUMCON:101:1,2011-09-12T20:00:00Z,29.2533,-90.6633,1.0,3.6,150.0,5.1,'11111222,11111222,11111222' 
LUMCON,ioos:station:LUMCON:101:1,2011-09-12T21:00:00Z,29.2533,-90.6633,1.0,4.1,150.0,5.1,'11111222,11111222,11111222' 
LUMCON,ioos:station:LUMCON:101:1,2011-09-12T22:00:00Z,29.2533,-90.6633,1.0,3.6,170.0,4.6,'11111222,11111222,11111222' 
LUMCON,ioos:station:LUMCON:101:1,2011-09-12T23:00:00Z,29.2533,-90.6633,1.0,3.1,180.0,4.6,'11111222,11111222,11111222' 
LUMCON,ioos:station:LUMCON:101:1,2011-09-13T16:00:00Z,29.2533,-90.6633,1.0,2.1,250.0,3.6,'11111222,11111222,11111222' 
LUMCON,ioos:station:LUMCON:101:1,2011-09-13T17:00:00Z,29.2533,-90.6633,1.0,2.6,250.0,4.1,'11111222,11111222,11111222' 
LUMCON,ioos:station:LUMCON:101:1,2011-09-13T18:00:00Z,29.2533,-90.6633,1.0,2.6,270.0,4.6,'11111222,11111222,11111222' 
LUMCON,ioos:station:LUMCON:101:1,2011-09-13T19:00:00Z,29.2533,-90.6633,1.0,4.1,210.0,6.2,'11111222,11111222,11111222' 
LUMCON,ioos:station:LUMCON:101:1,2011-09-13T20:00:00Z,29.2533,-90.6633,1.0,4.1,240.0,6.2,'11111222,11111222,11111222' 
LUMCON,ioos:station:LUMCON:101:1,2011-09-13T21:00:00Z,29.2533,-90.6633,1.0,4.1,230.0,6.2,'11111222,11111222,11111222' 
LUMCON,ioos:station:LUMCON:101:1,2011-09-13T22:00:00Z,29.2533,-90.6633,1.0,4.1,220.0,5.7,'11111222,11111222,11111222' 
LUMCON,ioos:station:LUMCON:101:1,2011-09-14T01:00:00Z,29.2533,-90.6633,1.0,3.1,210.0,4.6,'11111222,11111222,11111222' 
LUMCON,ioos:station:LUMCON:101:1,2011-09-14T02:00:00Z,29.2533,-90.6633,1.0,3.6,210.0,4.6,'11111222,11111222,11111222' 
LUMCON,ioos:station:LUMCON:101:1,2011-09-14T03:00:00Z,29.2533,-90.6633,1.0,3.1,210.0,3.6,'11111222,11111222,11111222' 
LUMCON,ioos:station:LUMCON:101:1,2011-09-14T04:00:00Z,29.2533,-90.6633,1.0,2.6,210.0,3.1,'11111222,11111222,11111222' 
LUMCON,ioos:station:LUMCON:101:1,2011-09-14T05:00:00Z,29.2533,-90.6633,1.0,2.6,210.0,3.6,'11111222,11111222,11111222' 
LUMCON,ioos:station:LUMCON:101:1,2011-09-14T06:00:00Z,29.2533,-90.6633,1.0,2.6,210.0,3.6,'11111222,11111222,11111222' 
LUMCON,ioos:station:LUMCON:101:1,2011-09-14T07:00:00Z,29.2533,-90.6633,1.0,2.6,210.0,3.1,'11111222,11111222,11111222' 
LUMCON,ioos:station:LUMCON:101:1,2011-09-14T08:00:00Z,29.2533,-90.6633,1.0,2.6,210.0,3.1,'11111222,11111222,11111222' 
LUMCON,ioos:station:LUMCON:101:1,2011-09-14T10:00:00Z,29.2533,-90.6633,1.0,3.1,220.0,3.6,'11111222,11111222,11111222' 
LUMCON,ioos:station:LUMCON:101:1,2011-09-14T12:00:00Z,29.2533,-90.6633,1.0,2.1,240.0,2.1,'11111222,11111222,11111222' 
LUMCON,ioos:station:LUMCON:101:1,2011-09-14T14:00:00Z,29.2533,-90.6633,1.0,2.6,250.0,4.1,'11111222,11111222,11111222' 
LUMCON,ioos:station:LUMCON:101:1,2011-09-14T16:00:00Z,29.2533,-90.6633,1.0,5.1,0.0,6.7,'11111222,11111222,11111222' 
LUMCON,ioos:station:LUMCON:101:1,2011-09-14T18:00:00Z,29.2533,-90.6633,1.0,2.1,230.0,4.6,'11111222,11111222,11111222' 
LUMCON,ioos:station:LUMCON:101:1,2011-09-14T19:00:00Z,29.2533,-90.6633,1.0,3.6,150.0,6.7,'11111222,11111222,11111222' 
LUMCON,ioos:station:LUMCON:101:1,2011-09-14T20:00:00Z,29.2533,-90.6633,1.0,3.6,220.0,5.7,'11111222,11111222,11111222' 
LUMCON,ioos:station:LUMCON:101:1,2011-09-14T21:00:00Z,29.2533,-90.6633,1.0,4.6,260.0,5.7,'11111222,11111222,11111222' 
LUMCON,ioos:station:LUMCON:101:1,2011-09-14T22:00:00Z,29.2533,-90.6633,1.0,5.1,220.0,6.7,'11111222,11111222,11111222' 
LUMCON,ioos:station:LUMCON:101:1,2011-09-15T00:00:00Z,29.2533,-90.6633,1.0,4.1,230.0,6.2,'11111222,11111222,11111222' 
LUMCON,ioos:station:LUMCON:101:1,2011-09-15T01:00:00Z,29.2533,-90.6633,1.0,3.6,240.0,4.6,'11111222,11111222,11111222' 
LUMCON,ioos:station:LUMCON:101:1,2011-09-15T02:00:00Z,29.2533,-90.6633,1.0,3.6,250.0,5.1,'11111222,11111222,11111222' 
LUMCON,ioos:station:LUMCON:101:1,2011-09-15T03:00:00Z,29.2533,-90.6633,1.0,3.1,240.0,4.1,'11111222,11111222,11111222' 
LUMCON,ioos:station:LUMCON:101:1,2011-09-15T04:00:00Z,29.2533,-90.6633,1.0,3.1,240.0,4.1,'11111222,11111222,11111222' 
LUMCON,ioos:station:LUMCON:101:1,2011-09-15T05:00:00Z,29.2533,-90.6633,1.0,2.6,250.0,3.6,'11111222,11111222,11111222' 
LUMCON,ioos:station:LUMCON:101:1,2011-09-15T06:00:00Z,29.2533,-90.6633,1.0,3.1,250.0,3.6,'11111222,11111222,11111222' 
LUMCON,ioos:station:LUMCON:101:1,2011-09-15T07:00:00Z,29.2533,-90.6633,1.0,3.1,250.0,4.1,'11111222,11111222,11111222' 
LUMCON,ioos:station:LUMCON:101:1,2011-09-15T08:00:00Z,29.2533,-90.6633,1.0,2.1,240.0,3.1,'11111222,11111222,11111222' 
LUMCON,ioos:station:LUMCON:101:1,2011-09-15T09:00:00Z,29.2533,-90.6633,1.0,2.1,260.0,2.6,'11111222,11111222,11111222' 
LUMCON,ioos:station:LUMCON:101:1,2011-09-15T10:00:00Z,29.2533,-90.6633,1.0,2.6,280.0,3.1,'11111222,11111222,11111222' 
LUMCON,ioos:station:LUMCON:101:1,2011-09-15T11:00:00Z,29.2533,-90.6633,1.0,2.6,290.0,3.1,'11111222,11111222,11111222' 
LUMCON,ioos:station:LUMCON:101:1,2011-09-15T12:00:00Z,29.2533,-90.6633,1.0,2.6,300.0,2.6,'11111222,11111222,11111222' 
LUMCON,ioos:station:LUMCON:101:1,2011-09-15T13:00:00Z,29.2533,-90.6633,1.0,3.1,310.0,4.6,'11111222,11111222,11111222' 
LUMCON,ioos:station:LUMCON:101:1,2011-09-15T14:00:00Z,29.2533,-90.6633,1.0,5.1,310.0,6.2,'11111222,11111222,11111222' 
LUMCON,ioos:station:LUMCON:101:1,2011-09-15T15:00:00Z,29.2533,-90.6633,1.0,4.6,300.0,6.2,'11111222,11111222,11111222' 
LUMCON,ioos:station:LUMCON:101:1,2011-09-15T16:00:00Z,29.2533,-90.6633,1.0,4.1,310.0,6.7,'11111222,11111222,11111222' 
LUMCON,ioos:station:LUMCON:101:1,2011-09-15T17:00:00Z,29.2533,-90.6633,1.0,5.1,310.0,6.7,'11111222,11111222,11111222' 
LUMCON,ioos:station:LUMCON:101:1,2011-09-15T18:00:00Z,29.2533,-90.6633,1.0,4.6,300.0,6.7,'11111222,11111222,11111222' 
LUMCON,ioos:station:LUMCON:101:1,2011-09-15T19:00:00Z,29.2533,-90.6633,1.0,4.1,300.0,6.2,'11111222,11111222,11111222' 
LUMCON,ioos:station:LUMCON:101:1,2011-09-15T20:00:00Z,29.2533,-90.6633,1.0,5.7,330.0,7.2,'11111222,11111222,11111222' 
LUMCON,ioos:station:LUMCON:101:1,2011-09-15T21:00:00Z,29.2533,-90.6633,1.0,4.1,310.0,6.2,'11111222,11111222,11111222' 
LUMCON,ioos:station:LUMCON:101:1,2011-09-15T22:00:00Z,29.2533,-90.6633,1.0,3.6,320.0,4.6,'11111222,11111222,11111222' 
LUMCON,ioos:station:LUMCON:101:1,2011-09-15T23:00:00Z,29.2533,-90.6633,1.0,5.7,40.0,6.7,'11111222,11111222,11111222' 
LUMCON,ioos:station:LUMCON:101:1,2011-09-16T00:00:00Z,29.2533,-90.6633,1.0,6.7,30.0,8.8,'11111222,11111222,11111222' 
LUMCON,ioos:station:LUMCON:101:1,2011-09-16T01:00:00Z,29.2533,-90.6633,1.0,6.7,30.0,8.2,'11111222,11111222,11111222' 
LUMCON,ioos:station:LUMCON:101:1,2011-09-16T02:00:00Z,29.2533,-90.6633,1.0,7.2,10.0,9.8,'11111222,11111222,11111222' 
LUMCON,ioos:station:LUMCON:101:1,2011-09-16T03:00:00Z,29.2533,-90.6633,1.0,7.7,20.0,9.3,'11111222,11111222,11111222' 
LUMCON,ioos:station:LUMCON:101:1,2011-09-16T04:00:00Z,29.2533,-90.6633,1.0,6.2,20.0,8.8,'11111222,11111222,11111222' 
LUMCON,ioos:station:LUMCON:101:1,2011-09-16T05:00:00Z,29.2533,-90.6633,1.0,6.2,20.0,7.2,'11111222,11111222,11111222' 
LUMCON,ioos:station:LUMCON:101:1,2011-09-16T06:00:00Z,29.2533,-90.6633,1.0,6.2,30.0,8.2,'11111222,11111222,11111222' 
LUMCON,ioos:station:LUMCON:101:1,2011-09-16T07:00:00Z,29.2533,-90.6633,1.0,5.1,30.0,6.7,'11111222,11111222,11111222' 
LUMCON,ioos:station:LUMCON:101:1,2011-09-16T08:00:00Z,29.2533,-90.6633,1.0,5.7,50.0,8.2,'11111222,11111222,11111222' 
LUMCON,ioos:station:LUMCON:101:1,2011-09-16T09:00:00Z,29.2533,-90.6633,1.0,5.7,50.0,7.2,'11111222,11111222,11111222' 
LUMCON,ioos:station:LUMCON:101:1,2011-09-16T10:00:00Z,29.2533,-90.6633,1.0,6.7,50.0,8.2,'11111222,11111222,11111222' 
LUMCON,ioos:station:LUMCON:101:1,2011-09-16T11:00:00Z,29.2533,-90.6633,1.0,5.7,50.0,7.2,'11111222,11111222,11111222' 
LUMCON,ioos:station:LUMCON:101:1,2011-09-16T12:00:00Z,29.2533,-90.6633,1.0,5.1,40.0,6.7,'11111222,11111222,11111222' 
LUMCON,ioos:station:LUMCON:101:1,2011-09-16T13:00:00Z,29.2533,-90.6633,1.0,5.1,50.0,6.7,'11111222,11111222,11111222' 
LUMCON,ioos:station:LUMCON:101:1,2011-09-16T15:00:00Z,29.2533,-90.6633,1.0,5.1,50.0,6.7,'11111222,11111222,11111222' 
LUMCON,ioos:station:LUMCON:101:1,2011-09-16T16:00:00Z,29.2533,-90.6633,1.0,4.1,70.0,5.1,'11111222,11111222,11111222' 
LUMCON,ioos:station:LUMCON:101:1,2011-09-17T14:00:00Z,29.2533,-90.6633,1.0,3.6,40.0,5.7,'11111222,11111222,11111222' 
LUMCON,ioos:station:LUMCON:101:1,2011-09-18T20:00:00Z,29.2533,-90.6633,1.0,5.7,160.0,8.2,'11111222,11111222,11111222' 
LUMCON,ioos:station:LUMCON:101:1,2011-09-19T06:00:00Z,29.2533,-90.6633,1.0,6.2,140.0,8.8,'11111222,11111222,11111222' 
LUMCON,ioos:station:LUMCON:101:1,2011-09-19T13:00:00Z,29.2533,-90.6633,1.0,2.1,200.0,2.6,'11111222,11111222,11111222' 
LUMCON,ioos:station:LUMCON:101:1,2011-09-19T14:00:00Z,29.2533,-90.6633,1.0,2.6,300.0,3.6,'11111222,11111222,11111222' 
LUMCON,ioos:station:LUMCON:101:1,2011-09-19T15:00:00Z,29.2533,-90.6633,1.0,3.1,320.0,3.6,'11111222,11111222,11111222' 
LUMCON,ioos:station:LUMCON:101:1,2011-09-19T16:00:00Z,29.2533,-90.6633,1.0,2.1,350.0,2.6,'11111222,11111222,11111222' 
LUMCON,ioos:station:LUMCON:101:1,2011-09-19T17:00:00Z,29.2533,-90.6633,1.0,5.7,270.0,9.3,'11111222,11111222,11111222' 
LUMCON,ioos:station:LUMCON:101:1,2011-09-19T18:00:00Z,29.2533,-90.6633,1.0,2.6,250.0,3.6,'11111222,11111222,11111222' 
LUMCON,ioos:station:LUMCON:101:1,2011-09-19T19:00:00Z,29.2533,-90.6633,1.0,3.1,180.0,5.1,'11111222,11111222,11111222' 
LUMCON,ioos:station:LUMCON:101:1,2011-09-19T20:00:00Z,29.2533,-90.6633,1.0,4.1,150.0,5.7,'11111222,11111222,11111222' 